This demonstration page uses our WeatherBlox Daily Observations layout. Learn more.

Hourly Observations for December 23, 2019

Temp ( °F °C ) Dew Point ( °F °C ) Humidity (%) Winds ( mph kmh ) Pressure ( in mb ) Visibility ( mi km ) Precip ( " mm )
12:15 am 00:15 Clear 33 0.6 23 -5.1 66 66 Calm 30.06 1018 10 16.0934 0 0
12:35 am 00:35 Clear 34 1 23 -5.2 64 64 Calm 30.06 1018 10 16.0934 0 0
12:55 am 00:55 Clear 38 3.1 23 -5 56 56 SW 3 6 30.04 1017 10 16.0934 0 0
1:15 am 01:15 Clear 39 4 22 -5.5 50 50 Calm 30.03 1017 10 16.0934 0 0
1:35 am 01:35 Clear 40 4.4 22 -5.7 48 48 WSW 3 6 30.01 1016 10 16.0934 0 0
1:55 am 01:55 Clear 38 3.6 22 -5.5 52 52 Calm 30.01 1016 10 16.0934 0 0
2:15 am 02:15 Clear 38 3.6 22 -5.6 51 51 Calm 30 1016 10 16.0934 0 0
2:35 am 02:35 Clear 39 3.7 22 -5.6 51 51 SW 6 9 30 1016 10 16.0934 0 0
2:55 am 02:55 Clear 39 3.9 22 -5.5 51 51 SW 5 7 30 1016 10 16.0934 0 0
3:15 am 03:15 Clear 39 3.9 22 -5.6 50 50 SSW 3 6 30.01 1016 10 16.0934 0 0
3:35 am 03:35 Clear 35 1.7 22 -5.5 59 59 Calm 30.03 1017 10 16.0934 0 0
3:55 am 03:55 Clear 33 0.3 23 -5.2 67 67 S 3 6 30.03 1017 10 16.0934 0 0
4:15 am 04:15 Clear 33 0.4 22 -5.4 65 65 SSW 5 7 30.02 1017 10 16.0934 0 0
4:35 am 04:35 Clear 34 1 22 -5.5 62 62 SSW 3 6 30.02 1016 10 16.0934 0 0
4:55 am 04:55 Clear 35 1.6 22 -5.6 59 59 SSW 5 7 30.01 1016 10 16.0934 0 0
5:15 am 05:15 Clear 33 0.7 22 -5.8 62 62 Calm 30.02 1017 10 16.0934 0 0
5:35 am 05:35 Clear 29 -1.6 21 -6 72 72 N 8 13 30.05 1018 10 16.0934 0 0
5:55 am 05:55 Clear 28 -2.4 22 -5.5 80 80 NNE 6 9 30.07 1018 10 16.0934 0 0
6:15 am 06:15 Clear 29 -1.6 23 -5.1 77 77 Calm 30.07 1018 10 16.0934 0 0
6:35 am 06:35 Clear 28 -2 22 -5.5 77 77 Calm 30.07 1018 10 16.0934 0 0
6:55 am 06:55 Clear 27 -3 22 -5.8 81 81 Calm 30.08 1019 10 16.0934 0 0
7:15 am 07:15 Clear 26 -3.1 21 -5.9 81 81 Calm 30.08 1019 10 16.0934 0 0
7:35 am 07:35 Clear 28 -2.2 23 -5 81 81 Calm 30.08 1018 10 16.0934 0 0
7:55 am 07:55 Clear 25 -4 21 -6.2 85 85 Calm 30.09 1019 10 16.0934 0 0
8:15 am 08:15 Sunny 21 -6.1 18 -7.7 89 89 NNW 3 6 30.11 1020 10 16.0934 0 0
8:35 am 08:35 Sunny 24 -4.5 21 -5.9 90 90 Calm 30.1 1019 10 16.0934 0 0
8:55 am 08:55 Sunny 27 -2.7 24 -4.4 88 88 NE 5 7 30.07 1018 10 16.0934 0 0
9:15 am 09:15 Sunny 33 0.3 28 -2.1 84 84 Calm 30.04 1017 10 16.0934 0 0
9:35 am 09:35 Sunny 36 2.2 28 -2 74 74 E 3 6 30.01 1016 10 16.0934 0 0
9:55 am 09:55 Sunny 38 3.6 29 -1.6 69 69 Calm 30.02 1017 10 16.0934 0 0
10:15 am 10:15 Sunny 41 5.2 30 -1.2 64 64 Calm 30.01 1016 10 16.0934 0 0
10:35 am 10:35 Sunny 43 6 29 -1.8 58 58 Calm 30 1016 10 16.0934 0 0
10:55 am 10:55 Sunny 44 6.8 28 -2 54 54 ENE 5 7 29.99 1016 10 16.0934 0 0
11:15 am 11:15 Sunny 45 7.1 29 -1.6 54 54 ENE 6 9 29.98 1015 10 16.0934 0 0
11:35 am 11:35 Sunny 45 7.2 30 -1.1 56 56 ENE 7 11 29.96 1014 10 16.0934 0 0
11:55 am 11:55 Sunny 46 7.6 31 -0.5 57 57 E 5 7 29.94 1014 10 16.0934 0 0
12:15 pm 12:15 Sunny 47 8.5 31 -0.4 54 54 ESE 6 9 29.93 1013 10 16.0934 0 0
12:35 pm 12:35 Sunny 50 10 31 -0.4 49 49 ESE 8 13 29.9 1013 10 16.0934 0 0
12:55 pm 12:55 Sunny 51 10.7 30 -0.9 45 45 SE 9 15 29.88 1012 10 16.0934 0 0
1:15 pm 13:15 Sunny 52 11 30 -1.1 43 43 SE 10 17 29.86 1011 10 16.0934 0 0
1:35 pm 13:35 Sunny 51 10.7 31 -0.3 47 47 SSE 9 15 29.86 1011 10 16.0934 0 0
1:55 pm 13:55 Sunny 50 9.8 31 -0.3 50 50 SSE 8 13 29.85 1011 10 16.0934 0 0
2:15 pm 14:15 Sunny 50 9.9 32 -0.2 50 50 S 8 13 29.85 1011 10 16.0934 0 0
2:35 pm 14:35 Sunny 49 9.7 31 -0.5 49 49 SSW 7 11 29.87 1011 10 16.0934 0 0
2:55 pm 14:55 Sunny 49 9.3 30 -0.9 49 49 SSW 10 17 29.87 1011 10 16.0934 0 0
3:15 pm 15:15 Sunny 48 9 31 -0.7 51 51 S 7 11 29.87 1012 10 16.0934 0 0
3:35 pm 15:35 Sunny 47 8.2 31 -0.7 54 54 S 8 13 29.88 1012 10 16.0934 0 0
3:55 pm 15:55 Sunny 46 7.5 30 -1 55 55 S 7 11 29.9 1012 10 16.0934 0 0
4:15 pm 16:15 Sunny 44 6.5 30 -1.1 59 59 SSE 3 6 29.9 1013 10 16.0934 0 0
4:35 pm 16:35 Sunny 41 5.1 29 -1.6 62 62 S 5 7 29.92 1013 10 16.0934 0 0
4:55 pm 16:55 Sunny 41 5 29 -1.9 61 61 S 5 7 29.94 1014 10 16.0934 0 0
5:15 pm 17:15 Clear 40 4.2 28 -2.1 64 64 S 3 6 29.95 1014 10 16.0934 0 0
5:35 pm 17:35 Clear 37 3 27 -2.6 67 67 S 6 9 29.95 1014 10 16.0934 0 0
5:55 pm 17:55 Clear 37 2.7 27 -2.7 68 68 Calm 29.95 1014 10 16.0934 0 0
6:15 pm 18:15 Clear 36 2.3 27 -2.6 70 70 S 6 9 29.95 1014 10 16.0934 0 0
6:35 pm 18:35 Clear 36 2.2 28 -2.5 71 71 SSW 7 11 29.95 1014 10 16.0934 0 0
6:55 pm 18:55 Clear 36 2 27 -2.7 71 71 SW 3 6 29.97 1015 10 16.0934 0 0
7:15 pm 19:15 Clear 36 2.1 28 -2.5 72 72 SW 3 6 29.95 1014 10 16.0934 0 0
7:35 pm 19:35 Clear 36 2.4 28 -2.5 70 70 SW 3 6 29.96 1015 10 16.0934 0 0
7:55 pm 19:55 Clear 37 2.7 28 -2.5 69 69 SW 3 6 29.96 1015 10 16.0934 0 0
8:15 pm 20:15 Clear 35 1.9 27 -2.6 72 72 Calm 29.95 1014 10 16.0934 0 0
8:35 pm 20:35 Clear 35 1.6 27 -2.7 73 73 SSW 3 6 29.95 1014 10 16.0934 0 0
8:55 pm 20:55 Clear 34 0.9 26 -3.1 75 75 Calm 29.95 1014 10 16.0934 0 0
9:15 pm 21:15 Clear 35 1.4 27 -2.7 74 74 SW 5 7 29.94 1014 10 16.0934 0 0
9:35 pm 21:35 Clear 37 2.6 28 -2.4 70 70 SW 6 9 29.93 1014 10 16.0934 0 0
9:55 pm 21:55 Clear 37 2.8 28 -2.5 68 68 WSW 6 9 29.93 1013 10 16.0934 0 0
10:15 pm 22:15 Clear 38 3.3 28 -2.5 66 66 W 6 9 29.92 1013 10 16.0934 0 0
10:35 pm 22:35 Clear 38 3.3 27 -2.8 65 65 WSW 5 7 29.92 1013 10 16.0934 0 0
10:55 pm 22:55 Clear 38 3.2 27 -3 64 64 WSW 5 7 29.92 1013 10 16.0934 0 0
11:15 pm 23:15 Clear 36 2.4 26 -3.2 67 67 W 5 7 29.92 1013 10 16.0934 0 0
11:35 pm 23:35 Clear 36 2 26 -3.1 69 69 Calm 29.92 1013 10 16.0934 0 0
11:55 pm 23:55 Clear 35 1.7 27 -3 71 71 W 3 6 29.92 1013 10 16.0934 0 0

Powered by AerisWeather